GW4545 Weather Reports


time (UTC)temp
F
wind
direction
speed
knots
gust
knots
rain 1hr
in
rain 24hr
in
rain mn
in
humidity
%
barometer
mb
20260505230046 64 40 0.9 5.2 0.00 0.00 0.00 74 1017.2
20260505224541 63 94 2.6 5.2 0.00 0.00 0.00 72 1017.3
20260505223102 63 103 1.7 6.1 0.00 0.00 0.00 73 1017.4
20260505221543 63 78 0.9 5.2 0.00 0.00 0.00 75 1017.4
20260505220046 62 84 0.0 4.3 0.00 0.00 0.00 75 1017.5
20260505214552 61 38 1.7 5.2 0.00 0.00 0.00 79 1017.5
20260505213048 61 36 1.7 6.1 0.00 0.00 0.00 77 1017.6
20260505211552 61 28 1.7 7.0 0.00 0.00 0.00 78 1017.6
20260505210041 61 56 0.9 4.3 0.00 0.00 0.00 77 1017.7
20260505204547 60 155 0.9 7.0 0.00 0.00 0.00 79 1017.9
20260505203113 60 70 3.5 7.8 0.00 0.00 0.00 79 1018.0
20260505201545 60 0 0.9 5.2 0.00 0.00 0.00 82 1018.0
20260505200046 59 24 1.7 5.2 0.00 0.00 0.00 80 1018.1
20260505194544 58 38 1.7 4.3 0.00 0.00 0.00 82 1018.1
20260505193042 58 94 0.9 3.5 0.00 0.00 0.00 84 1018.2
20260505191546 57 90 1.7 3.5 0.00 0.00 0.00 85 1018.0
20260505190046 57 0 0.0 3.5 0.00 0.00 0.00 84 1018.1
20260505184552 56 137 0.9 3.5 0.00 0.00 0.00 85 1018.1
20260505183048 56 0 1.7 3.5 0.00 0.00 0.00 85 1018.0
20260505181553 56 41 1.7 3.5 0.00 0.00 0.00 87 1018.0
20260505180056 56 78 0.9 3.5 0.00 0.00 0.00 90 1018.0
20260505174545 55 95 1.7 3.5 0.00 0.00 0.00 89 1017.9
20260505173048 55 0 0.9 2.6 0.00 0.00 0.00 90 1017.9
20260505171548 55 101 0.0 2.6 0.00 0.00 0.00 88 1017.8
20260505170052 55 352 0.0 1.7 0.00 0.00 0.00 87 1017.6
20260505164547 54 0 0.9 2.6 0.00 0.00 0.00 88 1017.4
20260505163048 54 71 0.0 1.7 0.00 0.00 0.00 88 1017.3
20260505161548 54 38 0.9 3.5 0.00 0.00 0.00 90 1017.3
20260505153050 53 117 0.0 1.7 0.00 0.00 0.00 88 1017.1
20260505151545 53 0 0.0 0.9 0.00 0.00 0.00 88 1017.1
20260505124548 51 0 0.0 1.7 0.00 0.00 0.00 92 1016.0
20260505123101 50 105 0.9 1.7 0.00 0.00 0.00 92 1016.0
20260505121548 50 0 0.0 1.7 0.00 0.00 0.00 93 1015.9
20260505120053 50 91 0.9 2.6 0.00 0.00 0.00 94 1015.9
20260505114547 50 0 0.0 0.0 0.00 0.00 0.00 94 1016.0
20260505113049 50 0 0.0 1.7 0.00 0.00 0.00 93 1015.8
20260505111545 50 0 0.0 0.9 0.00 0.00 0.00 94 1015.8
20260505101545 48 0 0.0 0.0 0.00 0.00 0.00 94 1015.3
20260505100043 48 218 0.0 0.9 0.00 0.00 0.00 95 1015.4
20260505094545 47 0 0.0 0.0 0.00 0.00 0.00 94 1015.4
20260505093054 47 0 0.0 1.7 0.00 0.00 0.00 93 1015.2
20260505091544 47 218 0.0 1.7 0.00 0.00 0.00 93 1015.0
20260505090042 47 0 0.0 1.7 0.00 0.00 0.00 93 1014.9
20260505084543 47 0 0.9 1.7 0.00 0.00 0.00 93 1014.8
20260505083057 48 209 0.9 2.6 0.00 0.00 0.00 92 1014.8
20260505081548 48 184 1.7 2.6 0.00 0.00 0.00 93 1014.7
20260505080046 48 286 0.0 1.7 0.00 0.00 0.00 91 1014.7
20260505074543 49 286 0.9 2.6 0.00 0.00 0.00 91 1014.7
20260505073043 49 0 0.0 1.7 0.00 0.00 0.00 90 1014.5
20260505071548 50 250 0.9 1.7 0.00 0.00 0.00 90 1014.3
20260505070100 51 0 0.0 1.7 0.00 0.00 0.00 87 1014.0
20260505064550 52 0 0.0 5.2 0.00 0.00 0.00 86 1014.0
20260505063047 53 0 0.0 0.9 0.00 0.00 0.00 86 1013.7
20260505061610 53 0 0.0 1.7 0.00 0.00 0.00 86 1013.4
20260505060058 54 300 0.9 1.7 0.00 0.00 0.00 85 1013.3
20260505054547 54 300 0.9 2.6 0.00 0.00 0.00 84 1013.4
20260505053044 55 268 0.0 2.6 0.00 0.00 0.00 82 1013.5
20260505051542 55 0 0.0 1.7 0.00 0.00 0.00 82 1013.5
20260505041552 58 315 0.9 7.8 0.00 0.00 0.00 77 1012.9
20260505040058 59 268 2.6 5.2 0.00 0.00 0.00 77 1012.7
20260505034544 60 313 1.7 3.5 0.00 0.00 0.00 75 1012.5
20260505033041 61 0 0.0 4.3 0.00 0.00 0.00 74 1012.4
20260505031552 63 286 2.6 5.2 0.00 0.00 0.00 71 1012.2
20260505030049 64 321 0.0 1.7 0.00 0.00 0.00 69 1011.9
20260505024544 65 295 1.7 7.8 0.00 0.00 0.00 68 1012.0
20260505023044 67 252 5.2 10.4 0.00 0.00 0.00 64 1011.6
20260505021545 68 261 7.8 12.2 0.00 0.00 0.00 63 1011.7
20260505020050 70 281 6.1 9.6 0.00 0.00 0.00 63 1011.6
20260505014548 72 235 6.1 9.6 0.00 0.00 0.00 59 1011.5
20260505013047 73 254 7.0 12.2 0.00 0.00 0.00 58 1011.5
20260505011545 75 264 6.1 8.7 0.00 0.00 0.00 58 1011.6
20260505004554 77 146 2.6 6.1 0.00 0.00 0.00 56 1011.8
20260505003047 77 167 0.9 7.0 0.00 0.00 0.00 56 1011.7
20260505001552 77 111 1.7 6.1 0.00 0.00 0.00 60 1011.7
20260505000056 77 163 3.5 7.8 0.00 0.00 0.00 57 1011.9
20260504234545 77 194 2.6 5.2 0.00 0.00 0.00 58 1011.8
20260504233043 76 140 0.9 5.2 0.00 0.00 0.00 60 1011.9
20260504231541 77 9 0.9 4.3 0.00 0.00 0.00 57 1012.0